2025 OD15

Japanese version
Home page
Updated on August 8, 2025

---------------------------------------------------------------------

* Profile

Discovery Date July 29, 2025
Magnitude 20.98 mag
Discoverer Pan-STARRS 1 telescope (Haleakala)

* Orbital Elements

Epoch 2025 May 5.0 TT = JDT 2460800.5                   MPC                     
M 344.54589              (2000.0)            P               Q                  
n   0.10220818     Peri.  303.05041     +0.93534272     -0.29716547             
a   4.5304946      Node    74.86866     +0.35257211     +0.82724375             
e   0.7627991      Incl.   11.46650     -0.02875597     +0.47682330             
P   9.64           H   20.68          G   0.15           U   6                  

* Magnitudes Graph

        H = 20.7  G = 0.15

---------------------------------------------------------------------

The orbital elements are published on M.P.E.C. 2025-P63.
The magnitudes graphs are made with Comet for Windows.

---------------------------------------------------------------------

Copyright(C) Seiichi Yoshida (comet@aerith.net). All rights reserved.